Date,TemperatureHighF,TemperatureAvgF,TemperatureLowF,DewpointHighF,DewpointAvgF,DewpointLowF,HumidityHigh,HumidityAvg,HumidityLow,PressureMaxIn,PressureMinIn,WindSpeedMaxMPH,WindSpeedAvgMPH,GustSpeedMaxMPH,PrecipitationSumIn
2013-1-1,29,22,14,17,12,6,74,66,59,0.00,40.00,22,11,24,0.00
2013-1-2,24,15,11,11,6,3,73,68,58,0.00,40.00,19,14,21,0.00
2013-1-3,28,20,16,12,8,6,66,58,50,0.00,40.00,23,19,27,0.00
2013-1-4,38,30,23,21,16,9,71,54,48,0.00,40.00,23,15,26,0.00
2013-1-5,35,28,21,21,18,15,77,66,53,0.00,40.00,29,13,32,0.00
2013-1-6,38,31,26,23,18,14,63,57,49,0.00,40.00,27,17,30,0.00
2013-1-7,36,33,29,25,20,17,66,60,54,0.00,40.00,35,19,39,0.00
2013-1-8,38,35,32,26,19,13,64,51,39,0.00,40.00,23,15,26,0.00
2013-1-9,46,41,36,30,26,23,75,55,41,0.00,40.00,34,20,40,0.00
2013-1-10,38,20,7,28,16,4,90,83,65,0.00,40.00,26,15,30,0.00
2013-1-11,7,4,-2,4,1,-5,87,85,83,0.00,40.00,22,12,26,0.00
2013-1-12,13,3,-3,7,-1,-6,87,83,75,0.00,40.00,17,9,19,0.00
2013-1-13,11,4,-5,4,0,-9,85,81,71,0.00,40.00,16,9,17,0.00
2013-1-14,23,13,3,14,5,-3,76,70,65,0.00,40.00,25,18,29,0.00
2013-1-15,34,26,20,19,16,13,74,66,52,0.00,40.00,32,23,35,0.00
2013-1-16,45,38,32,20,18,13,52,44,37,0.00,40.00,21,10,23,0.00
2013-1-17,43,38,33,22,18,15,51,44,40,0.00,40.00,37,21,41,0.00
2013-1-18,44,40,36,19,16,14,42,38,35,0.00,40.00,37,23,41,0.00
2013-1-19,41,35,27,25,17,12,80,50,33,0.00,40.00,22,11,24,0.00
2013-1-20,38,19,15,16,15,13,93,86,36,0.00,40.00,14,7,16,0.00
2013-1-21,47,35,13,16,12,8,92,45,24,0.00,40.00,20,12,23,0.00
2013-1-22,42,35,32,14,10,6,45,35,29,0.00,40.00,20,17,24,0.00
2013-1-23,44,28,19,26,17,14,88,67,37,0.00,40.00,27,7,29,0.00
2013-1-24,44,40,32,27,21,14,55,47,39,0.00,40.00,40,16,47,0.00
2013-1-25,47,41,36,31,26,19,68,55,48,0.00,40.00,30,18,34,0.00
2013-1-26,49,38,31,32,29,24,93,73,44,0.00,40.00,25,14,29,0.00
2013-1-27,36,29,21,25,15,8,77,59,30,0.00,40.00,17,10,19,0.00
2013-1-28,35,26,21,18,14,8,74,61,34,0.00,40.00,19,13,21,0.00
2013-1-29,25,10,-2,18,4,-8,84,74,66,0.00,40.00,21,9,24,0.00
2013-1-30,32,20,13,19,12,7,76,72,55,0.00,40.00,16,11,17,0.00
2013-1-31,44,34,12,26,22,10,89,62,41,0.00,40.00,21,9,23,0.00